Flag for Rwanda Weather past 2 weeks in Kigali, Rwanda

Now
63 °F

Passing clouds.


Feels Like: 63 °F
Forecast: 63 / 79 °F
Wind: No wind

Location: Kigali Airport

Current Time: Sep 19, 2014 at 5:55:20 AM

Latest Report: Sep 19, 2014 at 5:30 AM


Visibility: 5 mi

Pressure: 30.12 "Hg

Humidity: 100%

Dew point: 63 °F

Location of KigaliLocation

Historic Weather in Kigali — Graph

°F

Kigali temperature yesterday

Maximum temperature yesterday: 86 °F (at 1:00 PM)
Minimum temperature yesterday: 61 °F (at 4:00 AM)
Average temperature yesterday: 72 °F

Past Weeks' High & Low Weather Summary

 TemperatureHumidityPressure
High86 °F (Sep 12, 3:00 PM)100% (Sep 4, 7:30 AM)30.30 "Hg (Sep 4, 7:30 AM)
Low52 °F (Sep 11, 2:00 AM)32% (Sep 12, 5:30 PM)30.01 "Hg (Sep 10, 4:00 PM)
Average70 °F76%30.14 "Hg
* Reported Sep 4 7:30 AM — Sep 19 4:00 AM, Kigali, Weather by CustomWeather, © 2014

Note: Actual official high and low records may vary slightly from our data, if they occured in-between our weather recording intervals... More about our weather records

Advertising

Kigali weather history for previous 24 hours

 ConditionsComfort  
Time TempWeatherWind HumidityBarometerVisibility
4:00 AM
Sep 19
64 °FMild.No wind88%30.09 "HgN/A
3:00 AM64 °FMild.No wind88%30.09 "HgN/A
2:30 AM66 °FMild.No wind88%30.09 "HgN/A
2:00 AM66 °FMild.No wind88%30.09 "HgN/A
1:30 AM66 °FMild.6 mph88%30.12 "HgN/A
1:00 AM68 °FPassing clouds.No wind83%30.12 "HgN/A
11:00 PM
Sep 18
70 °FPassing clouds.5 mph73%30.15 "HgN/A
9:30 PM70 °FPassing clouds.3 mph73%30.15 "HgN/A
9:00 PM72 °FPassing clouds.5 mph69%30.15 "HgN/A
8:30 PM72 °FPassing clouds.No wind69%30.12 "HgN/A
8:00 PM72 °FPassing clouds.5 mph69%30.12 "HgN/A
7:30 PM72 °FPassing clouds.3 mph69%30.09 "HgN/A
7:00 PM72 °FPassing clouds.6 mph69%30.09 "HgN/A
6:30 PM73 °FPassing clouds.6 mph61%30.07 "HgN/A
6:00 PM75 °FPassing clouds.12 mph57%30.07 "HgN/A
5:30 PM81 °FPartly sunny.5 mph51%30.04 "HgN/A
5:00 PM82 °FScattered clouds.10 mph48%30.04 "HgN/A
4:00 PM86 °FScattered clouds.5 mph40%30.01 "HgN/A
3:30 PM84 °FScattered clouds.5 mph43%30.04 "HgN/A
3:00 PM84 °FScattered clouds.5 mph45%30.04 "HgN/A
2:30 PM82 °FPartly sunny.5 mph48%30.04 "HgN/A
2:00 PM86 °FPartly sunny.8 mph46%30.04 "HgN/A
1:30 PM84 °FPartly sunny.5 mph43%30.07 "HgN/A
1:00 PM86 °FPartly sunny.6 mph43%30.09 "HgN/A
12:30 PM82 °FScattered clouds.6 mph45%30.09 "HgN/A
12:00 PM81 °FScattered clouds.9 mph45%30.12 "HgN/A
11:30 AM82 °FPartly sunny.6 mph48%30.12 "HgN/A
11:00 AM79 °FScattered clouds.5 mph54%30.15 "HgN/A
10:00 AM75 °FPassing clouds.7 mph65%30.18 "HgN/A
9:30 AM75 °FPassing clouds.5 mph65%30.18 "HgN/A
9:00 AM73 °FPassing clouds.No wind65%30.15 "HgN/A
8:30 AM70 °FPassing clouds.3 mph78%30.15 "HgN/A
8:00 AM66 °FScattered clouds.No wind88%30.15 "HgN/A
7:30 AM64 °FScattered clouds.No wind100%30.15 "HgN/A
7:00 AM63 °FScattered clouds.No wind100%30.15 "HgN/A
6:30 AM63 °FScattered clouds.No wind100%30.12 "HgN/A
6:00 AM63 °FScattered clouds.No wind100%30.12 "HgN/A
5:30 AM63 °FPassing clouds.No wind94%30.12 "HgN/A
5:00 AM61 °FPassing clouds.No wind100%30.09 "HgN/A
Weather by CustomWeather, © 2014

See weather overviewHow to use our weather pages